Погода в Валуйках

Россия / Московская область     56°09′36″N   36°06′41″E
темп.,
°C
ветер,
м/с
пор.,
м/с
влажн.,
%
обл.,
%
осадки,
мм/ч
давл.,
гПа
погр.,
м
25 мая, ср
ср2500:00+2с23819 0.0 101452
03:00−1с229299 0.0 101613
06:00+2с128249 0.0 1016137
09:00+7сз235865 0.0 10161211
12:00+10сз2449100 0.0 10161622
15:00+11з4452100 0.0 10151510
18:00+8зсз247599 0.1 1015894
21:00+7юз228552 0.1 101455
26 мая, чт
чт2600:00+4юз239598 0.0 101454
03:00+4ююз2396100 0.0 101344
06:00+6юз23888 0.0 1011108
09:00+13юз225733 0.0 1009440
12:00+17юз344694 0.0 10071171
15:00+17юз2354100 0.4 10051282
18:00+12зюз3687100 0.9 1004155
21:00+10з3699100 3.8 1003282
27 мая, пт
пт2700:00+9з3798100 2.2 1002300
03:00+9зсз3898100 4.4 1002395
06:00+9зюз2695100 0.3 1002239
09:00+10з4794100 0.4 1003577
12:00+12з578526 0.6 1003808
15:00+15зюз586272 1.4 10031570
18:00+14юз4867100 0.3 10031193
21:00+11юз41174100 0.3 1002416
28 мая, сб
сб2800:00+10ю41095100 0.6 999515
03:00+10з4898100 4.6 995562
06:00+9зюз7129274 5.3 997849
09:00+8зюз71389100 5.7 10001261
12:00+9зюз8127999 0.1 10021342
15:00+10юз7127583 0.3 10041425
18:00+12юз5116523 0.1 10041583
21:00+8юз41085100 0.1 1005339
29 мая, вс
вс2900:00+7ююз41191100 0.0 1005365
03:00+6юз5119613 0.0 1006387
06:00+7юз4109390 0.0 1007432
09:00+8юз6980100 0.0 1009790
12:00+10юз6974100 0.0 10101054
15:00+11юз6972100 0.1 10111331
18:00+13юз587099 0.1 10111257
21:00+9ююз410885 0.1 1013313